NIMBUS 2 DEB

Satellite information

Favourite Embed

Satellite Type and Status

DEBRISIN ORBIT

Key statistics

Satellite NIMBUS 2 DEB at a glance.

Uptime

21762

Days in orbit

Revolutions

≈ 13.4

Per day

Orbit

SSO

Sun Synchronous Orbit

Inclination

100.3

Latest

Satellite identification and parameters

Extended collection of information and parameters for NIMBUS 2 DEB.

Object identification

Identified? True

Debris? True

Object name: NIMBUS 2 DEB

International designator: 1966-040BZ

Object number (NORAD): 59970

Object ID (CCSDS): 59970

Country: UNITED STATES OF AMERICA (US)

Current information (Y/N): Y

RCS size: SMALL

Orbital parameters

Period: 107.41 minutes

Inclination: 100.3362 deg

SMA: 7484.956 km

Apoapsis: 1151.591 km

Periapsis: 1062.05 km

RAAN: 159.0295 deg

Eccentricy: 0.00598141

Argument of periapsis: 302.679 deg

Mean anomaly: 56.8577 deg

Mean motion: 13.40660787 rev/day

Mean motion (dot): 0.00002115 rev/day2

B* drag term: 0.0038903694 1/REarth

Two-line elements (TLE)

Creation date: Dec. 11, 2025, 7:14 p.m.

Reference frame: TEME

Reference center: EARTH

Epoch: Dec. 11, 2025, 10:44 a.m. UTC

TLE line 0: 0 NIMBUS 2 DEB

TLE line 1: 1 59970U 66040BZ 25345.44755850 .00002115 00000-0 38904-2 0 9998

TLE line 2: 2 59970 100.3362 159.0295 0059814 302.6790 56.8577 13.40660787399081

Live tracking on map

Real-time ground track for satellite NIMBUS 2 DEB.

In-orbit conjunctions

A list of the most updated potential collisions computed for object NIMBUS 2 DEB.

Target Orbit TCA Probability of collision Miss distance Type
NOVA 2 LEO 2025-02-19 08:28:57 0.0001847225 493.0 (m) PAYLOAD
SL-16 DEB LEO 2025-01-29 22:24:07 0.0002318601 454.0 (m) DEBRIS
DELTA 1 DEB SSO 2025-01-28 22:40:13 0.0001217681 993.0 (m) DEBRIS

Associated space launch

Nimbus 2, the second in a series of second-generation meteorological research-and-development satellites, added an additional medium-resolution infrared radiometer (MRIR) compared to Nimbus 1.

NIMBUS 2 DEB was lifted into orbit during the mission ‘Thor SLV-2A Agena B | Nimbus 2’, on board a Thor SLV-2A Agena B space rocket.

The launch took place on May 15, 1966, 7:55 a.m. from Space Launch Complex 2E.

For more information about the launch, click the button.

Launch to space Thor SLV-2A Agena B | Nimbus 2
Thor SLV-2A Agena B | Nimbus 2

Agency: N/A

Status: Launch Successful

Launch date: May 15, 1966, 7:55 a.m. UTC

Rocket: Thor SLV-2A Agena B

Launch pad: Space Launch Complex 2E

Location: Vandenberg SFB, CA, USA

...

Latest news about this satellite

There are no fresh news available about this satellite. Check back as we update our databases every day.


Newsletter sign-up

Weekly statistics, charts and insights to help you stay on top of the space industry.